Wind_Speed
16 16 15 16 16 17 18 20 21 22 23 25 27 29 29 29 29 28 28 27 27 27 27 30 32 30 25 23 23 23 24 25 25 24 23 22 22 20 18 17 17 17 18
17 17 17 17 18 18 18 19 21 23 23 24 25 26 27 27 26 25 24 21 22 23 25 28 31 29 24 21 20 22 23 23 25 25 23 21 20 20 18 17 17 16 16
20 19 18 18 18 18 17 18 19 21 22 22 22 21 22 23 23 23 22 21 20 20 21 23 24 23 22 20 19 20 21 23 25 23 21 19 18 19 18 16 16 13 13
24 23 21 19 18 17 17 18 19 20 21 20 20 21 22 21 21 21 22 23 22 20 19 19 21 23 23 21 20 20 21 22 21 20 20 19 20 20 18 16 14 11 11
27 26 24 23 21 20 20 19 19 18 19 21 20 22 24 24 21 21 22 23 23 23 23 22 24 25 25 24 21 20 20 22 21 21 21 21 23 22 19 17 14 12 11
27 26 26 26 26 24 23 21 20 19 19 19 19 19 22 23 23 22 21 22 24 26 26 26 27 27 26 24 21 19 20 22 22 21 22 23 25 24 20 18 15 13 11
26 26 27 28 29 27 25 24 23 22 21 19 18 19 20 22 23 23 22 22 23 25 28 30 30 28 27 26 23 21 21 22 22 22 22 22 23 23 21 19 17 15 13
25 27 28 29 29 28 27 27 27 25 22 20 20 19 20 22 23 24 24 24 24 25 26 28 31 31 29 26 24 23 23 23 24 24 24 23 22 21 20 19 18 16 14
24 24 25 27 27 27 27 29 29 27 25 23 22 22 21 21 23 24 24 23 24 24 25 25 28 29 28 27 26 25 25 25 25 25 25 26 25 23 21 20 19 18 15
23 23 25 27 28 28 30 31 31 29 27 26 24 24 24 22 21 24 25 24 24 24 24 24 24 25 27 28 28 27 26 26 28 28 27 29 29 27 25 23 21 19 16
25 26 28 30 30 31 32 32 31 30 28 25 24 24 24 23 21 21 23 24 25 26 25 24 23 23 26 28 29 28 27 28 30 30 28 29 30 29 28 26 23 20 18
25 26 27 29 30 31 32 32 32 30 27 26 25 25 24 23 21 20 20 22 25 27 27 27 26 26 27 28 28 28 28 28 29 31 29 30 31 31 30 29 27 23 20
23 24 26 28 29 30 30 30 30 28 25 25 25 26 25 23 22 21 21 21 22 25 27 28 28 29 29 29 29 29 29 30 30 31 31 30 32 33 34 32 29 26 23
20 20 20 21 23 25 26 26 26 24 23 24 24 25 24 22 22 21 21 21 20 21 22 25 27 29 29 29 29 30 30 30 30 31 34 34 35 35 35 34 31 29 27
16 14 14 15 14 13 14 16 18 20 21 21 21 21 21 22 22 21 21 22 22 22 23 24 25 27 28 28 28 28 29 29 29 29 32 35 38 39 38 36 34 31 29
13 12 12 13 10 4 2 8 13 16 17 18 18 19 20 21 21 21 21 22 23 23 23 23 23 24 24 25 25 25 26 27 29 30 31 34 38 40 41 38 35 33 32
11 10 10 10 10 7 5 6 9 11 13 14 15 16 18 19 20 20 20 20 22 22 23 24 25 26 25 25 25 25 25 25 26 25 27 32 36 38 37 34 33 33 34
9 9 8 8 8 7 6 5 6 7 10 11 12 14 15 16 17 18 19 20 21 22 24 26 27 28 28 28 27 27 25 25 26 25 23 24 26 28 28 29 30 32 34
8 8 8 8 8 7 7 6 4 4 6 8 9 11 12 13 14 15 16 18 19 21 23 25 26 28 29 30 30 29 28 27 26 26 25 25 26 26 26 27 30 31 32
7 7 7 7 7 7 6 6 5 3 1 2 4 6 7 8 10 11 12 14 16 19 22 24 26 27 28 29 30 30 29 28 28 28 30 31 32 32 32 32 32 33 34
6 6 6 6 6 6 6 7 7 6 5 3 1 1 3 5 6 7 9 10 13 15 18 20 21 23 25 26 27 27 28 28 28 30 32 33 34 34 34 33 33 32 33
6 5 5 5 5 6 6 6 7 7 6 4 3 2 2 3 4 5 7 8 10 11 12 11 11 13 14 17 19 21 22 23 24 26 29 32 33 32 31 32 33 34 34
7 7 6 6 6 6 6 6 7 7 6 5 4 4 4 4 5 5 6 8 9 10 10 8 6 6 7 9 11 14 17 18 19 19 21 23 26 29 31 32 33 34 35
10 9 9 8 8 7 7 7 7 8 7 6 5 5 5 5 6 6 7 8 9 9 9 8 7 6 7 8 10 12 14 16 19 20 21 22 23 25 28 29 31 33 35
12 12 12 11 10 10 9 9 9 9 9 9 9 8 8 8 8 8 9 9 10 10 9 9 8 8 9 10 11 13 14 15 17 19 22 22 23 24 25 26 27 27 27
14 14 14 13 13 12 12 12 12 12 12 12 11 11 11 11 11 11 11 11 11 10 9 8 7 7 8 10 10 11 13 14 14 14 17 20 22 23 23 23 23 23 24
Wind_Direction
286 282 281 278 274 269 263 257 256 254 249 245 247 248 245 241 238 238 239 236 238 240 239 236 236 241 248 253 251 250 254 252 251 250 247 250 257 260 259 262 267 271 278
289 286 281 277 273 270 265 259 256 248 247 251 253 246 242 238 236 233 228 228 232 231 231 230 231 236 240 245 245 247 250 248 249 246 243 248 255 259 261 265 269 275 284
290 287 286 281 275 269 261 257 257 254 254 257 250 239 234 231 231 229 228 231 234 233 228 224 225 231 234 238 243 246 247 248 248 243 238 245 253 258 261 263 267 276 282
290 289 287 285 282 277 270 265 264 264 259 258 251 243 239 238 238 238 237 236 236 237 234 227 227 229 232 238 244 244 244 243 240 237 240 247 253 255 259 263 266 269 276
290 289 287 285 286 288 286 279 273 268 262 258 253 250 247 246 247 248 243 240 238 237 236 232 230 230 234 240 241 237 237 238 246 249 249 252 255 256 258 262 260 262 269
287 286 284 283 284 285 284 278 271 264 258 253 251 251 249 248 248 250 246 241 237 236 234 233 233 232 235 237 233 229 232 238 248 255 257 256 255 252 251 254 254 255 260
279 279 279 278 278 278 276 273 270 267 260 252 248 249 249 247 246 246 242 236 232 232 232 233 234 232 233 235 233 231 234 238 245 252 256 257 252 245 243 244 245 246 248
274 274 274 274 273 273 272 270 269 269 266 258 250 247 250 248 243 238 236 231 227 227 229 233 234 229 227 231 233 233 232 235 240 246 250 254 250 240 238 241 242 241 241
275 273 273 272 271 270 269 269 270 269 267 260 250 244 245 246 242 236 232 227 224 223 224 228 228 222 223 229 235 236 234 235 236 242 247 248 244 238 236 239 242 241 238
278 276 274 274 271 269 267 268 269 267 264 256 246 239 239 242 244 241 234 230 224 221 222 223 220 219 223 228 233 236 237 238 237 238 245 246 243 236 234 237 241 240 237
284 282 278 274 270 266 265 265 263 261 257 251 246 240 238 238 243 244 239 234 230 226 223 222 221 222 225 227 229 232 238 242 240 237 243 244 238 232 231 236 237 237 236
290 286 282 277 272 267 263 260 258 255 250 250 248 242 239 239 241 244 244 239 234 230 229 228 229 232 233 231 232 236 240 243 242 237 241 238 232 230 231 236 237 235 235
299 294 288 281 274 268 262 256 252 250 246 245 243 238 236 237 239 241 244 244 241 235 232 232 234 236 237 236 237 241 243 243 242 239 237 234 233 234 236 239 241 239 236
309 306 302 295 284 271 261 251 244 239 233 231 232 230 229 231 236 238 236 239 243 242 239 240 241 241 242 242 243 246 247 245 243 241 237 235 236 239 240 240 241 240 238
325 328 330 327 312 282 256 238 225 217 215 218 221 223 224 228 234 235 232 235 240 244 245 247 247 247 248 248 247 248 247 242 240 241 243 240 237 236 237 238 239 239 240
346 353 358 2 4 12 180 190 193 199 205 211 217 220 222 226 231 233 231 235 241 246 247 248 250 251 252 252 251 250 247 243 243 246 248 243 236 233 235 236 236 237 239
6 12 17 25 35 52 98 151 177 191 200 209 216 220 221 221 225 229 232 238 244 248 250 250 251 252 252 253 254 255 252 243 240 245 248 240 234 231 230 230 232 236 239
22 26 30 39 50 64 86 121 162 186 198 207 213 216 217 220 225 231 237 244 251 254 256 257 257 257 256 255 256 256 251 244 238 241 243 232 224 222 226 229 234 236 238
38 41 43 50 59 70 82 97 123 163 194 208 215 221 226 232 238 243 248 253 259 263 264 264 262 260 258 256 255 254 250 243 236 232 233 231 227 227 231 237 241 241 241
44 49 52 53 57 61 64 65 67 73 101 214 231 237 244 249 252 254 256 261 267 270 271 269 265 261 259 256 252 249 246 242 237 233 232 233 235 236 239 243 246 247 247
43 49 50 50 51 53 50 44 39 36 37 39 22 277 269 268 266 264 266 274 282 283 281 276 269 262 258 254 250 245 242 240 237 236 236 237 237 238 240 242 244 247 248
42 44 44 44 44 44 39 30 25 26 29 32 30 3 324 306 293 284 285 293 304 307 302 292 277 264 255 249 244 238 236 236 237 237 236 237 238 237 239 242 244 248 250
35 35 34 31 30 31 30 28 26 27 30 32 29 20 4 350 339 324 314 312 312 314 313 307 290 265 254 249 244 240 237 234 234 236 238 238 237 236 240 245 249 252 256
36 35 34 31 29 27 26 25 24 25 26 26 23 16 6 357 348 336 325 320 318 314 307 298 285 268 260 258 251 246 242 241 243 244 244 244 244 242 244 247 251 254 258
44 43 42 39 37 35 35 35 35 35 35 34 32 28 22 12 1 352 344 337 332 326 314 300 287 275 265 267 261 250 245 247 251 251 248 247 246 247 249 250 251 253 256
49 49 49 48 48 47 45 44 43 42 42 41 38 33 27 21 15 10 6 4 1 355 345 328 306 293 279 271 266 251 245 248 255 254 249 246 248 253 255 254 252 253 256
Height
5777 5776 5776 5774 5773 5773 5773 5774 5775 5776 5776 5778 5779 5781 5782 5784 5787 5790 5792 5795 5797 5799 5802 5805 5808 5811 5814 5816 5819 5820 5822 5824 5825 5827 5828 5828 5829 5830 5830 5830 5830 5830 5830
5774 5772 5771 5770 5769 5768 5768 5769 5769 5770 5771 5772 5773 5774 5776 5778 5781 5784 5786 5788 5791 5792 5795 5798 5801 5805 5808 5810 5812 5814 5815 5817 5819 5821 5823 5824 5825 5825 5825 5825 5825 5825 5825
5770 5768 5767 5766 5764 5763 5763 5763 5764 5764 5765 5766 5767 5769 5771 5773 5776 5778 5780 5782 5784 5786 5788 5791 5795 5798 5801 5804 5806 5808 5810 5812 5814 5816 5818 5819 5820 5820 5821 5821 5820 5819 5819
5764 5762 5761 5761 5760 5759 5758 5758 5758 5759 5759 5761 5762 5764 5765 5768 5770 5772 5774 5776 5778 5780 5783 5787 5790 5792 5795 5798 5800 5803 5805 5806 5808 5811 5813 5814 5814 5815 5816 5816 5816 5815 5814
5756 5755 5754 5754 5754 5753 5753 5753 5753 5754 5754 5755 5756 5757 5759 5761 5763 5765 5767 5769 5771 5774 5778 5782 5785 5787 5790 5792 5795 5797 5799 5801 5804 5806 5807 5808 5809 5810 5811 5811 5811 5811 5810
5749 5747 5747 5746 5746 5746 5746 5746 5746 5747 5748 5749 5750 5751 5752 5754 5756 5758 5760 5762 5765 5768 5772 5775 5778 5781 5784 5787 5789 5791 5794 5796 5798 5799 5801 5802 5803 5804 5805 5806 5806 5807 5806
5742 5740 5739 5738 5738 5738 5738 5738 5738 5739 5740 5741 5743 5744 5745 5746 5748 5751 5754 5756 5758 5761 5764 5768 5771 5775 5778 5781 5783 5786 5788 5790 5792 5794 5795 5796 5797 5798 5799 5801 5801 5803 5803
5735 5734 5732 5730 5729 5729 5729 5729 5730 5731 5732 5733 5735 5737 5738 5739 5741 5744 5747 5749 5751 5754 5757 5760 5763 5767 5771 5774 5776 5780 5783 5785 5787 5788 5789 5790 5792 5793 5795 5796 5796 5798 5798
5728 5727 5725 5723 5721 5720 5720 5720 5721 5722 5724 5726 5728 5730 5732 5733 5735 5737 5740 5742 5744 5747 5750 5753 5755 5758 5762 5766 5769 5772 5775 5778 5780 5781 5783 5784 5786 5788 5790 5790 5791 5792 5793
5721 5719 5718 5716 5714 5713 5712 5711 5712 5713 5715 5717 5720 5723 5726 5727 5728 5730 5733 5735 5738 5740 5742 5745 5748 5751 5755 5759 5762 5764 5767 5770 5773 5774 5775 5777 5779 5782 5784 5785 5786 5787 5787
5713 5711 5709 5707 5705 5704 5703 5703 5703 5704 5706 5709 5712 5715 5718 5720 5722 5724 5726 5728 5730 5732 5734 5737 5741 5744 5749 5752 5755 5757 5759 5761 5764 5766 5767 5769 5771 5775 5777 5779 5781 5782 5783
5704 5701 5698 5696 5694 5693 5693 5693 5693 5695 5697 5701 5704 5708 5711 5714 5716 5718 5721 5723 5724 5726 5728 5731 5734 5738 5741 5744 5747 5748 5750 5752 5755 5758 5760 5762 5764 5767 5770 5773 5775 5776 5777
5695 5692 5688 5685 5683 5682 5682 5682 5684 5686 5689 5693 5697 5701 5704 5708 5710 5712 5715 5717 5718 5720 5722 5725 5728 5731 5734 5736 5738 5740 5741 5743 5746 5749 5752 5755 5757 5759 5762 5765 5768 5769 5770
5689 5685 5680 5676 5673 5670 5670 5671 5674 5678 5682 5686 5690 5694 5697 5701 5704 5707 5709 5712 5713 5715 5717 5720 5722 5724 5726 5728 5730 5731 5733 5735 5737 5740 5744 5747 5749 5751 5755 5758 5760 5762 5764
5684 5680 5675 5670 5665 5662 5661 5663 5667 5671 5676 5681 5685 5688 5692 5695 5698 5701 5704 5707 5709 5711 5712 5714 5715 5717 5718 5720 5721 5723 5725 5726 5729 5732 5735 5737 5740 5743 5746 5749 5752 5754 5757
5682 5678 5674 5669 5665 5661 5661 5662 5666 5670 5674 5678 5681 5684 5688 5691 5694 5696 5699 5701 5703 5705 5706 5708 5709 5710 5711 5712 5713 5715 5716 5718 5720 5723 5725 5727 5730 5733 5737 5740 5744 5747 5749
5681 5678 5675 5672 5669 5667 5666 5667 5669 5671 5674 5677 5680 5682 5685 5688 5690 5692 5695 5696 5698 5699 5700 5701 5702 5703 5704 5706 5707 5708 5709 5711 5713 5715 5716 5717 5720 5724 5728 5732 5736 5739 5741
5682 5680 5678 5675 5673 5671 5670 5671 5671 5673 5675 5676 5678 5680 5683 5685 5687 5688 5690 5691 5692 5692 5693 5693 5694 5695 5696 5698 5699 5701 5702 5704 5706 5708 5710 5711 5714 5717 5721 5725 5728 5731 5733
5684 5682 5680 5678 5676 5675 5674 5673 5674 5674 5675 5676 5677 5678 5680 5681 5683 5684 5684 5685 5685 5685 5685 5685 5685 5686 5687 5688 5691 5693 5695 5698 5700 5702 5704 5707 5710 5712 5715 5718 5721 5723 5725
5686 5684 5682 5681 5679 5678 5677 5676 5676 5676 5676 5676 5676 5677 5677 5678 5679 5679 5680 5680 5680 5679 5678 5677 5677 5677 5678 5679 5682 5684 5687 5690 5693 5696 5698 5701 5703 5706 5709 5711 5713 5715 5717
5687 5685 5684 5682 5681 5680 5679 5678 5677 5677 5676 5676 5676 5676 5676 5676 5676 5676 5677 5676 5676 5674 5672 5670 5669 5669 5669 5670 5672 5675 5678 5681 5685 5688 5690 5693 5696 5698 5701 5703 5705 5706 5708
5688 5686 5685 5683 5682 5681 5680 5679 5678 5677 5677 5676 5676 5675 5675 5675 5675 5674 5674 5673 5672 5670 5667 5665 5663 5662 5662 5663 5665 5668 5671 5673 5676 5679 5682 5684 5687 5690 5692 5694 5696 5698 5699
5689 5688 5686 5685 5683 5682 5681 5680 5679 5678 5677 5676 5676 5675 5675 5674 5673 5672 5672 5670 5669 5667 5664 5662 5661 5660 5660 5661 5662 5664 5666 5668 5671 5673 5675 5677 5680 5682 5684 5687 5688 5689 5690
5691 5689 5687 5686 5684 5683 5681 5680 5679 5678 5677 5676 5675 5675 5674 5673 5672 5671 5669 5668 5666 5664 5662 5660 5659 5659 5659 5659 5659 5660 5662 5664 5666 5668 5670 5671 5673 5675 5677 5678 5680 5681 5681
5693 5691 5689 5687 5686 5684 5682 5681 5680 5679 5678 5676 5675 5674 5673 5672 5671 5669 5667 5665 5663 5661 5659 5658 5657 5656 5656 5656 5656 5657 5658 5660 5661 5662 5663 5665 5667 5668 5669 5670 5671 5671 5672
5696 5694 5692 5690 5688 5686 5684 5683 5681 5680 5679 5678 5677 5675 5674 5672 5670 5668 5666 5664 5661 5659 5657 5655 5654 5654 5653 5653 5653 5653 5654 5655 5656 5657 5658 5659 5661 5662 5663 5663 5664 5664 5664